Location: Bethera
(33.2010°N, 79.7880°W)
Time: 21:26:06
(UTC-05:00)

Daily predictions for brighter satellites

Satellite Brightness Start Highest point End
(mag) Time Altitude Azimuth Time Altitude Azimuth Time Altitude Azimuth
Cosmos 44 3.1 18:01:04 10° SSW 18:05:15 57° ESE 18:09:32 10° NE
Meteor 2-21 Rocket 4.4 18:00:38 10° N 18:06:44 79° E 18:12:46 10° S
Cosmos 2181 Rocket 4.2 18:03:48 10° S 18:10:14 84° W 18:16:43 10° N
OAO 3 Rocket 3.2 18:07:00 10° W 18:11:40 70° N 18:16:24 10° E
SMAP 3.7 18:08:21 10° S 18:12:57 61° W 18:17:33 10° NNW
EO 1 Del DPAF 3.8 18:11:41 10° NNE 18:15:15 36° E 18:18:47 10° SSE
ATLAS 2AS CENTAUR R/B 3.1 18:10:14 10° NNW 18:18:04 83° WSW 18:25:10 10° SSE
Cosmos 968 Rocket 3.4 18:14:54 10° NNW 18:20:02 71° ENE 18:25:06 10° SSE
Cosmos 1626 2.6 18:17:18 10° SSE 18:20:45 39° E 18:24:14 10° NNE
Cosmos 2221 3.0 18:17:46 10° NNW 18:22:07 69° W 18:26:27 10° S
Landsat 4 3.6 18:19:36 10° NNE 18:23:20 70° ESE 18:27:01 10° S
Cosmos 1703 4.2 18:21:52 10° SSE 18:25:16 28° E 18:28:41 10° NNE
MTI 3.7 18:23:33 10° NNE 18:26:46 85° E 18:29:56 10° S
Cosmos 2263 4.4 18:21:04 10° NNW 18:26:51 80° WSW 18:32:32 10° SSE
Cosmos 2058 4.0 18:24:39 10° SE 18:28:02 24° E 18:31:26 10° NE
Cosmos 2369 Rocket 3.3 18:26:54 10° NNW 18:32:21 49° WSW 18:37:47 10° S
SL-8 Rocket 4.0 18:26:51 10° N 18:33:04 89° W 18:39:19 10° S
Cosmos 1408 Rocket 3.4 18:29:27 10° S 18:33:42 71° E 18:37:59 10° NNE
NOSS 3 (A) 4.3 18:31:40 10° SSW 18:34:25 68° ESE 18:36:27 17° NE
NOAA 12 4.1 18:29:40 10° SSE 18:34:45 56° ENE 18:39:53 10° N
Cosmos 44 Rocket 3.2 18:30:18 10° SSW 18:34:57 85° WNW 18:39:42 10° NNE
Cosmos 1656 Rocket 3.9 18:31:15 10° N 18:36:29 43° ENE 18:41:43 10° SE
Cosmos 1300 3.0 18:34:06 10° NNW 18:37:54 69° W 18:41:41 10° S
Cosmos 2218 Rocket 3.9 18:31:56 10° N 18:38:07 82° E 18:44:14 10° S
ERS-2 2.7 18:36:11 10° SE 18:39:33 36° ENE 18:42:57 10° N
NOSS 3-4 (A) 4.2 18:33:56 10° NNW 18:40:40 42° NE 18:47:48 10° ESE
NOSS 3-4 (C) 4.2 18:34:03 10° NNW 18:40:46 42° NE 18:47:54 10° ESE
Cosmos 2151 3.6 18:37:39 10° SSE 18:41:29 33° E 18:45:08 11° NNE
Cosmos 1943 Rocket 2.8 18:38:07 10° NNW 18:43:37 61° WSW 18:49:02 10° S
DMSP B5D1-3 4.4 18:39:47 10° NNE 18:44:53 80° ESE 18:49:59 10° S
COSMO-SKYMED 1 3.5 18:41:10 10° N 18:45:22 50° WNW 18:49:33 10° SSW
Cosmos 1500 Rocket 4.2 18:42:24 10° SSE 18:46:24 33° E 18:49:28 15° NNE
CZ-4 R/B 3.5 18:43:50 10° SSW 18:47:35 31° W 18:51:23 10° NW
SEDSat Delta rocket 4.2 18:42:25 10° WSW 18:49:04 63° SSE 18:53:17 21° E
Lacrosse 5 3.4 18:50:14 10° SSE 18:53:35 18° ESE 18:53:52 18° ESE
Cosmos 2228 Rocket 3.6 18:51:35 10° N 18:55:52 39° E 19:00:08 10° SSE
Cosmos 332 Rocket 3.9 18:51:28 10° S 18:56:12 55° ESE 18:59:46 17° NNE
SL-08 R/B 4.5 18:50:50 10° N 18:57:01 86° W 19:03:08 10° S
SL-24 R/B - RUBIN 2 3.6 18:53:02 10° NNW 18:57:22 52° ENE 19:00:44 15° SE
ALOS 2.7 18:54:01 10° S 18:58:38 65° W 19:03:17 10° NNW
FENGYUN 3A 3.9 18:54:26 10° S 18:59:46 73° WSW 19:05:07 10° NNW
Cosmos 1743 Rocket 3.4 18:56:16 10° S 19:00:37 66° E 19:04:55 10° NNE
ASTRO E2 2.9 19:00:09 10° WSW 19:04:06 63° S 19:05:23 38° ESE
Cosmos 1328 Rocket 3.4 19:06:15 10° N 19:10:36 81° E 19:14:55 10° S
Thor Agena Rocket 3.6 19:07:18 17° NNE 19:11:12 55° E 19:16:16 10° S
Meteor 1-27 4.1 19:05:52 10° N 19:11:37 79° E 19:17:24 10° S
Cosmos 1346 Rocket 2.7 19:09:57 10° N 19:13:51 81° W 19:17:43 10° S
Cosmos 909 Rocket 4.5 19:11:03 10° NNW 19:17:10 37° NE 19:18:03 36° ENE
H-2A R/B 2.7 19:14:43 10° S 19:18:29 84° WSW 19:22:20 10° NNW
COSMOS 2406 3.4 19:13:05 10° SSW 19:18:49 75° WNW 19:23:40 15° NNE
Cosmos 1821 Rocket 4.0 19:15:24 10° N 19:21:25 52° E 19:27:28 10° SSE
Meteor 2-15 Rocket 4.4 19:15:25 10° S 19:21:25 59° E 19:26:48 13° NNE
FengYun 1-2 T 4.2 19:19:35 10° SSE 19:25:14 88° ENE 19:30:53 10° NNW
Nadezhda 3 Rocket 4.2 19:21:40 10° S 19:27:56 74° W 19:34:19 10° N
Hubble Space Telescope 3.1 19:26:20 10° S 19:27:40 13° SSE 19:27:40 13° SSE
Cosmos 1455 2.5 19:32:17 10° NNW 19:36:06 65° W 19:39:52 10° S
CZ-4C R/B 2.9 19:32:42 10° S 19:35:51 33° SSE 19:35:51 33° SSE
USA 81 4.4 19:33:14 10° SSW 19:38:27 63° W 19:43:41 10° N
Cosmos 371 Rocket 3.9 19:37:24 10° SSW 19:42:04 53° WNW 19:44:16 29° N
Cosmos 1151 Rocket 3.6 19:44:14 10° NNW 19:48:33 57° W 19:52:50 10° S
Cosmos 2208 Rocket 4.2 19:44:43 10° SSW 19:49:56 70° WNW 19:51:09 51° N
OAO 3 Rocket 3.6 19:50:35 10° WNW 19:54:22 57° W 19:54:22 57° W
GEOS 3 Rocket 4.2 19:59:26 48° NNW 19:59:26 48° NNW 20:03:17 10° NNW
Cosmos 1934 Rocket 4.0 19:54:50 10° N 20:05:23 23° S 20:07:35 10° S
Lacrosse 5 3.9 20:31:08 10° SW 20:33:08 23° WSW 20:33:08 23° WSW
